Home > Weather > Portsmouth > Past weeks

Flag for USA Past Weather in Portsmouth, Virginia, USA — Yesterday and Last 2 Weeks

Now
82 °F

Passing clouds.


Feels Like: 89 °F
Forecast: 79 / 97 °F
Wind: 8 mph from Southwest

Location: Norfolk Naval Air Station

Current Time: Jul 25, 2016 at 4:11:51 AM

Latest Report: Jul 25, 2016 at 2:59 AM


Visibility: 8 mi

Pressure: 30.00 "Hg

Humidity: 82%

Dew Point: 76 °F

Location of PortsmouthLocation

Past Weather in Portsmouth — Graph

°F

Portsmouth Temperature Yesterday

Maximum temperature yesterday: 98 °F (at 2:59 PM)
Minimum temperature yesterday: 79 °F (at 5:59 AM)
Average temperature yesterday: 88 °F

High & Low Weather Summary for the Past Weeks

 TemperatureHumidityPressure
High98 °F (Jul 24, 2:59 PM)97% (Jul 21, 5:59 AM)30.21 "Hg (Jul 21, 5:59 AM)
Low70 °F (Jul 20, 12:59 AM)43% (Jul 21, 6:59 PM)29.89 "Hg (Jul 10, 2:59 AM)
Average82 °F70%30.06 "Hg
* Reported Jul 10 2:59 AM — Jul 25 2:59 AM, Portsmouth, Weather by CustomWeather, © 2016

Note: Actual official high and low records may vary slightly from our data, if they occured in-between our weather recording intervals... More about our weather records

Advertising

Portsmouth Weather History for the Previous 24 Hours

Scroll right to see more
 ConditionsComfort  
Time TempWeatherWind HumidityBarometerVisibility
2:59 AM
Mon, Jul 25
82 °FPassing clouds.8 mph82%30.00 "Hg8 mi
1:59 AM83 °FPassing clouds.7 mph79%29.99 "Hg8 mi
12:59 AM84 °FPassing clouds.9 mph74%30.00 "Hg9 mi
11:59 PM
Sun, Jul 24
85 °FPassing clouds.6 mph70%30.01 "Hg9 mi
10:59 PM86 °FPassing clouds.5 mph67%30.02 "Hg9 mi
9:59 PM88 °FPassing clouds.8 mph63%30.01 "Hg10 mi
8:59 PM88 °FPartly sunny.5 mph63%29.99 "Hg10 mi
7:59 PM91 °FPartly sunny.8 mph56%29.97 "Hg9 mi
6:59 PM93 °FBroken clouds.3 mph56%29.97 "Hg8 mi
5:59 PM94 °FBroken clouds.7 mph54%29.96 "Hg8 mi
4:59 PM93 °FPartly sunny.10 mph54%29.97 "Hg8 mi
3:59 PM97 °FBroken clouds.6 mph43%29.97 "Hg9 mi
2:59 PM98 °FBroken clouds.No wind45%29.98 "Hg9 mi
1:59 PM97 °FBroken clouds.9 mph48%29.99 "Hg9 mi
12:59 PM94 °FPartly sunny.10 mph54%30.00 "Hg8 mi
11:59 AM93 °FPartly sunny.9 mph54%30.00 "Hg8 mi
10:59 AM90 °FPartly sunny.7 mph63%30.00 "Hg8 mi
9:59 AM87 °FPartly sunny.8 mph67%29.99 "Hg7 mi
8:59 AM85 °FPartly sunny.6 mph72%30.00 "Hg8 mi
7:59 AM82 °FScattered clouds.7 mph77%29.99 "Hg8 mi
6:59 AM80 °FPassing clouds.7 mph79%29.99 "Hg8 mi
5:59 AM79 °FPassing clouds.7 mph82%29.98 "Hg8 mi
4:59 AM80 °FPassing clouds.3 mph81%29.97 "Hg9 mi
Weather by CustomWeather, © 2016

See weather overviewHow to use our weather pages